QPF
0.00 0.00 0.00 0.00 0.00 0.00 0.00 0.00 0.00 0.00 0.00 0.00 0.00 0.00 0.00 0.00 0.00 0.00 0.00 0.00 0.00 0.00 0.00 0.00 0.00 0.00 0.00 0.00 0.00 0.00 0.00 0.00 0.00 0.00 0.00 0.00 0.00 0.00 0.00 0.00 0.00 0.00 0.00
0.00 0.00 0.00 0.00 0.00 0.00 0.00 0.00 0.00 0.00 0.00 0.00 0.00 0.00 0.00 0.00 0.00 0.00 0.00 0.00 0.00 0.00 0.00 0.00 0.00 0.00 0.00 0.00 0.00 0.00 0.00 0.00 0.00 0.00 0.00 0.00 0.00 0.00 0.00 0.00 0.00 0.00 0.00
0.00 0.00 0.00 0.00 0.00 0.00 0.00 0.00 0.00 0.00 0.00 0.00 0.00 0.00 0.00 0.00 0.00 0.00 0.00 0.00 0.00 0.00 0.00 0.00 0.00 0.00 0.00 0.00 0.00 0.00 0.00 0.00 0.00 0.00 0.00 0.00 0.00 0.00 0.00 0.00 0.00 0.00 0.00
0.00 0.00 0.00 0.00 0.00 0.00 0.00 0.00 0.00 0.00 0.00 0.00 0.00 0.00 0.00 0.00 0.00 0.00 0.00 0.00 0.00 0.00 0.00 0.00 0.00 0.00 0.00 0.00 0.00 0.00 0.00 0.00 0.00 0.00 0.00 0.00 0.00 0.00 0.00 0.00 0.00 0.00 0.00
0.00 0.00 0.00 0.00 0.00 0.00 0.00 0.00 0.00 0.00 0.00 0.00 0.00 0.00 0.00 0.00 0.00 0.00 0.00 0.00 0.00 0.00 0.00 0.00 0.00 0.00 0.00 0.00 0.00 0.00 0.00 0.00 0.00 0.00 0.00 0.00 0.00 0.00 0.00 0.00 0.00 0.00 0.00
0.00 0.00 0.00 0.00 0.00 0.00 0.00 0.00 0.00 0.00 0.00 0.00 0.00 0.00 0.00 0.00 0.00 0.00 0.00 0.00 0.00 0.00 0.00 0.00 0.00 0.00 0.00 0.00 0.00 0.00 0.00 0.00 0.00 0.00 0.00 0.00 0.00 0.00 0.00 0.00 0.00 0.00 0.00
0.00 0.00 0.00 0.00 0.00 0.00 0.00 0.00 0.00 0.00 0.00 0.00 0.00 0.00 0.00 0.00 0.00 0.00 0.00 0.00 0.00 0.00 0.00 0.00 0.00 0.00 0.00 0.00 0.00 0.00 0.00 0.00 0.00 0.00 0.00 0.00 0.00 0.00 0.00 0.00 0.00 0.00 0.00
0.00 0.00 0.00 0.00 0.00 0.00 0.00 0.00 0.00 0.00 0.00 0.00 0.00 0.00 0.00 0.00 0.00 0.00 0.00 0.00 0.00 0.00 0.00 0.00 0.00 0.00 0.00 0.00 0.00 0.00 0.00 0.00 0.00 0.00 0.00 0.00 0.00 0.00 0.00 0.00 0.00 0.00 0.00
0.00 0.00 0.00 0.00 0.00 0.00 0.00 0.00 0.00 0.00 0.00 0.00 0.00 0.00 0.00 0.00 0.00 0.00 0.00 0.00 0.00 0.00 0.00 0.00 0.00 0.00 0.00 0.00 0.00 0.00 0.00 0.00 0.00 0.00 0.00 0.00 0.00 0.00 0.00 0.00 0.00 0.00 0.00
0.00 0.00 0.00 0.00 0.00 0.00 0.00 0.00 0.00 0.00 0.00 0.00 0.00 0.00 0.00 0.00 0.00 0.00 0.00 0.00 0.00 0.00 0.00 0.00 0.00 0.00 0.00 0.00 0.00 0.00 0.00 0.00 0.00 0.00 0.00 0.00 0.00 0.00 0.00 0.00 0.00 0.00 0.00
0.00 0.00 0.00 0.00 0.00 0.00 0.00 0.00 0.00 0.00 0.00 0.00 0.00 0.00 0.00 0.00 0.00 0.00 0.00 0.00 0.00 0.00 0.00 0.00 0.00 0.00 0.00 0.00 0.00 0.00 0.00 0.00 0.00 0.00 0.00 0.00 0.00 0.00 0.00 0.00 0.00 0.00 0.00
0.00 0.00 0.00 0.00 0.00 0.00 0.00 0.00 0.00 0.00 0.00 0.00 0.00 0.00 0.00 0.00 0.00 0.00 0.00 0.00 0.00 0.00 0.00 0.00 0.00 0.00 0.00 0.00 0.00 0.00 0.00 0.00 0.00 0.00 0.00 0.00 0.00 0.00 0.00 0.00 0.00 0.00 0.00
0.00 0.00 0.00 0.00 0.00 0.00 0.00 0.00 0.00 0.00 0.00 0.00 0.00 0.00 0.00 0.00 0.00 0.00 0.00 0.00 0.00 0.00 0.00 0.00 0.00 0.00 0.00 0.00 0.00 0.00 0.00 0.00 0.00 0.00 0.00 0.00 0.00 0.00 0.00 0.00 0.00 0.00 0.00
0.00 0.00 0.00 0.00 0.00 0.00 0.00 0.00 0.00 0.00 0.00 0.00 0.00 0.00 0.00 0.00 0.00 0.00 0.00 0.00 0.00 0.00 0.00 0.00 0.00 0.00 0.00 0.00 0.00 0.00 0.00 0.00 0.00 0.00 0.00 0.00 0.00 0.00 0.00 0.00 0.00 0.00 0.00
0.00 0.00 0.00 0.00 0.00 0.00 0.00 0.00 0.00 0.00 0.00 0.00 0.00 0.00 0.00 0.00 0.00 0.00 0.00 0.00 0.00 0.00 0.00 0.00 0.00 0.00 0.00 0.00 0.00 0.00 0.00 0.00 0.00 0.00 0.00 0.00 0.00 0.00 0.00 0.00 0.00 0.00 0.00
0.00 0.00 0.00 0.00 0.00 0.00 0.00 0.00 0.00 0.00 0.00 0.00 0.00 0.00 0.00 0.00 0.00 0.00 0.00 0.00 0.00 0.00 0.00 0.00 0.00 0.00 0.00 0.00 0.00 0.00 0.00 0.00 0.00 0.00 0.00 0.00 0.00 0.00 0.00 0.00 0.00 0.00 0.00
0.00 0.00 0.00 0.00 0.00 0.00 0.00 0.00 0.00 0.00 0.00 0.00 0.00 0.00 0.00 0.00 0.00 0.00 0.00 0.00 0.00 0.00 0.00 0.00 0.00 0.00 0.00 0.00 0.00 0.00 0.00 0.00 0.00 0.00 0.00 0.00 0.00 0.00 0.00 0.00 0.00 0.00 0.00
0.00 0.00 0.00 0.00 0.00 0.00 0.00 0.00 0.00 0.00 0.00 0.00 0.00 0.00 0.00 0.00 0.00 0.00 0.00 0.00 0.00 0.00 0.00 0.00 0.00 0.00 0.00 0.00 0.00 0.00 0.00 0.00 0.00 0.00 0.00 0.00 0.00 0.00 0.00 0.00 0.00 0.00 0.00
0.00 0.00 0.00 0.00 0.00 0.00 0.00 0.00 0.00 0.00 0.00 0.00 0.00 0.00 0.00 0.00 0.00 0.00 0.00 0.00 0.00 0.00 0.00 0.00 0.00 0.00 0.00 0.00 0.00 0.00 0.00 0.00 0.00 0.00 0.00 0.00 0.00 0.00 0.00 0.00 0.00 0.00 0.00
0.00 0.00 0.00 0.00 0.00 0.00 0.00 0.00 0.00 0.00 0.00 0.00 0.00 0.00 0.00 0.00 0.00 0.00 0.00 0.00 0.00 0.00 0.00 0.00 0.00 0.00 0.00 0.00 0.00 0.00 0.00 0.00 0.00 0.00 0.00 0.00 0.00 0.00 0.00 0.00 0.00 0.00 0.00
0.00 0.00 0.00 0.00 0.00 0.00 0.00 0.00 0.00 0.00 0.00 0.00 0.00 0.00 0.00 0.00 0.00 0.00 0.00 0.00 0.00 0.00 0.00 0.00 0.00 0.00 0.00 0.00 0.00 0.00 0.00 0.00 0.00 0.00 0.00 0.00 0.00 0.00 0.00 0.00 0.00 0.00 0.00
0.00 0.00 0.00 0.00 0.00 0.00 0.00 0.00 0.00 0.00 0.00 0.00 0.00 0.00 0.00 0.00 0.00 0.00 0.00 0.00 0.00 0.00 0.00 0.00 0.00 0.00 0.00 0.00 0.00 0.00 0.00 0.00 0.00 0.00 0.00 0.00 0.00 0.00 0.00 0.00 0.00 0.00 0.00
0.00 0.00 0.00 0.00 0.00 0.00 0.00 0.00 0.00 0.00 0.00 0.00 0.00 0.00 0.00 0.00 0.00 0.00 0.00 0.00 0.00 0.00 0.00 0.00 0.00 0.00 0.00 0.00 0.00 0.00 0.00 0.00 0.00 0.00 0.00 0.00 0.00 0.00 0.00 0.00 0.00 0.00 0.00
0.00 0.00 0.00 0.00 0.00 0.00 0.00 0.00 0.00 0.00 0.00 0.00 0.00 0.00 0.00 0.00 0.00 0.00 0.00 0.00 0.00 0.00 0.00 0.00 0.00 0.00 0.00 0.00 0.00 0.00 0.00 0.00 0.00 0.00 0.00 0.00 0.00 0.00 0.00 0.00 0.00 0.00 0.00
0.00 0.00 0.00 0.00 0.00 0.00 0.00 0.00 0.00 0.00 0.00 0.00 0.00 0.00 0.00 0.00 0.00 0.00 0.00 0.00 0.00 0.00 0.00 0.00 0.00 0.00 0.00 0.00 0.00 0.00 0.00 0.00 0.00 0.00 0.00 0.00 0.00 0.00 0.00 0.00 0.00 0.00 0.00
0.00 0.00 0.00 0.00 0.00 0.00 0.00 0.00 0.00 0.00 0.00 0.00 0.00 0.00 0.00 0.00 0.00 0.00 0.00 0.00 0.00 0.00 0.00 0.00 0.00 0.00 0.00 0.00 0.00 0.00 0.00 0.00 0.00 0.00 0.00 0.00 0.00 0.00 0.00 0.00 0.00 0.00 0.00
MSLP
1021.97 1022.28 1022.23 1022.26 1022.40 1022.74 1022.41 1022.54 1022.19 1022.75 1023.44 1024.00 1024.37 1024.78 1025.11 1025.33 1025.23 1024.93 1024.75 1024.54 1024.68 1024.58 1024.51 1024.50 1024.31 1024.15 1024.05 1024.17 1023.75 1023.59 1023.32 1023.25 1023.11 1022.63 1022.92 1022.68 1022.55 1022.73 1023.00 1023.13 1022.98 1022.80 1022.60
1021.93 1022.40 1022.42 1022.37 1022.55 1022.86 1022.87 1022.44 1022.68 1023.28 1023.60 1024.02 1024.66 1025.08 1025.65 1025.98 1025.68 1025.50 1025.39 1025.25 1025.25 1025.22 1025.03 1025.13 1025.18 1025.04 1024.88 1024.81 1024.64 1024.31 1024.25 1024.33 1024.02 1023.80 1023.95 1023.73 1023.29 1023.33 1023.46 1023.54 1023.35 1023.54 1023.13
1021.62 1022.24 1022.56 1022.66 1022.87 1023.12 1023.20 1023.13 1023.10 1023.52 1023.61 1024.22 1024.87 1025.30 1025.71 1026.01 1025.98 1025.92 1026.09 1026.10 1025.95 1025.71 1025.75 1025.82 1026.07 1025.88 1025.80 1025.87 1025.80 1025.44 1025.13 1025.40 1025.07 1024.77 1024.69 1024.86 1025.50 1024.87 1023.86 1023.74 1023.70 1023.71 1023.36
1021.40 1021.91 1022.39 1022.97 1023.20 1023.35 1023.35 1023.35 1023.50 1024.02 1024.11 1024.49 1024.90 1025.42 1025.83 1026.25 1026.83 1026.70 1026.84 1026.95 1026.64 1026.20 1026.58 1026.55 1026.55 1026.75 1026.64 1026.52 1026.65 1026.45 1025.97 1025.99 1026.28 1025.98 1025.88 1026.03 1026.31 1026.58 1025.57 1024.45 1024.27 1024.07 1023.63
1020.59 1021.41 1022.12 1022.63 1023.22 1023.55 1023.66 1023.95 1023.87 1024.31 1024.55 1025.01 1025.22 1025.73 1026.19 1026.61 1027.25 1027.40 1027.24 1027.43 1027.25 1027.02 1027.11 1027.07 1027.23 1027.12 1027.11 1027.41 1027.39 1027.14 1026.95 1026.89 1026.95 1026.88 1026.83 1026.62 1026.63 1026.82 1026.64 1025.88 1024.76 1024.09 1023.78
1020.61 1021.43 1022.10 1022.74 1023.52 1023.99 1024.21 1024.25 1024.15 1024.58 1024.92 1025.43 1025.79 1026.08 1026.69 1027.13 1027.48 1027.88 1027.95 1027.93 1027.95 1027.74 1027.69 1027.67 1027.64 1027.45 1027.52 1027.75 1027.76 1027.89 1027.76 1027.63 1027.43 1027.41 1027.44 1027.20 1027.23 1027.15 1026.99 1026.84 1025.99 1025.24 1023.65
1020.13 1021.22 1022.17 1022.95 1023.64 1024.11 1024.44 1024.76 1024.37 1024.95 1025.23 1025.70 1026.15 1026.48 1027.01 1027.10 1027.66 1028.12 1027.87 1028.17 1028.27 1028.48 1028.36 1028.17 1028.03 1028.00 1028.06 1028.06 1028.11 1028.17 1028.31 1028.17 1027.75 1027.85 1027.76 1027.61 1027.54 1027.37 1027.36 1027.33 1026.91 1025.97 1024.49
1019.50 1020.58 1021.45 1022.26 1023.05 1023.72 1024.15 1024.51 1024.71 1025.18 1025.46 1025.69 1026.36 1026.92 1027.31 1027.48 1027.63 1027.74 1027.94 1028.32 1028.51 1028.63 1028.63 1028.30 1028.30 1028.59 1028.58 1028.57 1028.56 1028.28 1028.25 1028.18 1028.08 1028.10 1028.03 1027.90 1027.74 1027.58 1027.67 1027.75 1027.41 1025.96 1025.15
1018.61 1019.74 1020.86 1021.78 1022.78 1023.35 1023.82 1024.25 1024.82 1025.32 1025.44 1026.00 1026.61 1027.23 1027.44 1027.40 1027.72 1028.00 1028.05 1028.35 1028.34 1028.55 1028.73 1028.73 1028.80 1028.98 1029.03 1028.97 1028.73 1028.52 1028.59 1028.42 1028.39 1028.51 1028.37 1028.09 1027.87 1027.83 1027.83 1027.87 1027.70 1027.30 1025.97
1017.89 1019.03 1020.15 1021.20 1022.29 1022.96 1023.60 1024.21 1024.65 1025.18 1025.62 1026.20 1026.82 1027.18 1027.30 1027.41 1027.74 1028.12 1028.38 1028.40 1028.50 1028.71 1028.91 1029.01 1029.07 1029.28 1029.41 1029.17 1028.70 1028.96 1029.02 1028.83 1028.85 1028.74 1028.60 1028.35 1028.21 1028.07 1027.92 1027.81 1027.67 1027.34 1026.99
1016.93 1018.11 1019.46 1020.79 1021.85 1022.77 1023.51 1024.23 1024.80 1025.27 1025.90 1026.25 1026.73 1026.89 1027.16 1027.55 1027.92 1028.22 1028.45 1028.61 1028.57 1028.64 1028.99 1029.10 1029.29 1029.46 1029.44 1029.25 1029.22 1029.27 1029.30 1029.23 1029.25 1029.13 1028.88 1028.64 1028.38 1028.16 1027.91 1027.73 1027.46 1027.13 1026.74
1016.92 1018.00 1019.19 1020.42 1021.57 1022.41 1023.32 1023.96 1024.52 1024.97 1025.47 1025.88 1026.33 1026.76 1027.30 1027.80 1028.06 1028.32 1028.46 1028.59 1028.59 1028.66 1028.98 1029.09 1029.26 1029.38 1029.46 1029.51 1029.50 1029.59 1029.64 1029.65 1029.58 1029.38 1029.08 1028.85 1028.53 1028.26 1027.98 1027.68 1027.35 1026.97 1026.46
1016.78 1017.88 1018.97 1019.94 1020.87 1021.92 1022.83 1023.50 1024.04 1024.62 1025.18 1025.71 1026.17 1026.80 1027.44 1027.90 1028.06 1028.29 1028.55 1028.54 1028.52 1028.78 1029.00 1029.08 1029.26 1029.44 1029.42 1029.55 1029.67 1029.80 1029.93 1029.95 1029.86 1029.59 1029.29 1028.97 1028.63 1028.24 1027.87 1027.60 1027.21 1026.78 1026.16
1016.10 1017.12 1018.44 1019.40 1020.31 1021.37 1022.28 1023.07 1023.68 1024.28 1024.89 1025.46 1026.05 1026.75 1027.32 1027.63 1028.00 1028.37 1028.39 1028.38 1028.58 1028.88 1029.04 1029.09 1029.13 1029.28 1029.52 1029.69 1029.85 1030.00 1030.23 1030.16 1029.88 1029.58 1029.35 1029.06 1028.77 1028.29 1027.89 1027.42 1027.08 1026.55 1026.04
1016.32 1016.97 1017.82 1018.79 1019.83 1020.94 1021.82 1022.63 1023.19 1023.87 1024.43 1025.19 1025.89 1026.47 1026.98 1027.51 1027.92 1028.16 1028.25 1028.43 1028.68 1028.87 1028.92 1028.94 1029.07 1029.34 1029.57 1029.72 1030.00 1030.25 1030.30 1030.09 1029.85 1029.65 1029.37 1029.00 1028.54 1028.06 1027.79 1027.47 1026.95 1026.47 1025.88
1015.24 1016.08 1017.00 1018.03 1019.01 1019.98 1020.98 1021.82 1022.58 1023.38 1024.06 1024.82 1025.53 1026.18 1026.82 1027.27 1027.60 1027.93 1028.26 1028.57 1028.79 1028.78 1028.73 1028.90 1029.11 1029.42 1029.55 1029.71 1029.86 1030.18 1030.26 1030.07 1029.85 1029.53 1029.23 1028.98 1028.37 1028.03 1027.64 1027.26 1026.71 1026.30 1025.67
1014.08 1015.19 1016.04 1016.82 1017.92 1019.03 1020.01 1020.91 1021.84 1022.88 1023.71 1024.41 1025.13 1025.83 1026.41 1026.91 1027.37 1027.79 1028.19 1028.46 1028.56 1028.61 1028.75 1028.94 1029.23 1029.50 1029.74 1029.70 1029.82 1030.01 1030.17 1030.08 1029.79 1029.45 1029.10 1028.69 1028.20 1028.01 1027.68 1026.88 1026.39 1025.95 1025.60
1013.04 1013.95 1014.94 1016.01 1017.10 1018.16 1019.15 1019.95 1021.13 1022.21 1023.12 1023.95 1024.64 1025.31 1025.99 1026.58 1027.12 1027.58 1027.92 1028.17 1028.37 1028.57 1028.82 1029.11 1029.29 1029.48 1029.65 1029.63 1029.80 1030.02 1030.11 1029.97 1029.75 1029.53 1029.18 1028.75 1028.33 1027.97 1027.39 1026.68 1026.15 1025.69 1025.31
1011.06 1012.03 1013.17 1014.60 1016.16 1017.24 1018.19 1019.38 1020.56 1021.56 1022.49 1023.23 1023.92 1024.62 1025.31 1026.01 1026.62 1027.23 1027.59 1027.86 1028.22 1028.59 1028.84 1029.05 1029.25 1029.47 1029.66 1029.63 1029.69 1029.88 1029.93 1029.78 1029.62 1029.38 1029.07 1028.60 1028.30 1027.85 1027.09 1026.51 1025.98 1025.46 1024.89
1010.64 1011.70 1012.83 1014.00 1015.23 1016.29 1017.40 1018.62 1019.74 1020.74 1021.55 1022.24 1022.93 1023.76 1024.55 1025.25 1026.01 1026.55 1027.19 1027.62 1028.01 1028.33 1028.74 1029.13 1029.29 1029.40 1029.62 1029.57 1029.53 1029.55 1029.80 1029.69 1029.41 1029.18 1028.89 1028.51 1028.08 1027.45 1026.87 1026.35 1025.83 1025.27 1024.67
1009.67 1010.92 1012.17 1013.07 1014.00 1015.42 1016.61 1017.73 1018.77 1019.52 1020.12 1021.22 1022.23 1023.13 1023.84 1024.54 1025.25 1026.11 1026.83 1027.29 1027.82 1028.35 1028.83 1029.12 1029.37 1029.52 1029.55 1029.58 1029.44 1029.39 1029.64 1029.61 1029.50 1029.26 1028.85 1028.37 1027.84 1027.28 1026.65 1026.14 1025.83 1025.39 1024.61
1009.15 1010.13 1011.47 1012.52 1013.54 1014.51 1015.54 1016.76 1017.62 1018.10 1019.34 1020.53 1021.59 1022.46 1023.22 1024.01 1024.87 1025.69 1026.52 1027.17 1027.76 1028.37 1028.86 1029.19 1029.48 1029.53 1029.55 1029.52 1029.51 1029.45 1029.43 1029.44 1029.60 1029.42 1028.98 1028.43 1027.72 1027.13 1026.70 1026.27 1025.59 1025.08 1024.58
1008.30 1009.24 1010.27 1011.70 1012.94 1013.82 1014.59 1015.58 1016.21 1017.56 1018.78 1020.06 1021.07 1021.89 1022.76 1023.57 1024.36 1025.36 1026.31 1027.17 1027.66 1028.21 1028.68 1029.06 1029.36 1029.51 1029.49 1029.65 1029.54 1029.51 1029.46 1029.44 1029.57 1029.33 1028.72 1028.04 1027.69 1027.14 1026.85 1026.16 1025.49 1025.05 1024.54
1007.82 1008.73 1010.03 1011.06 1012.12 1013.02 1013.82 1014.19 1015.49 1016.69 1018.04 1019.34 1020.41 1021.41 1022.41 1023.41 1024.14 1024.87 1025.63 1026.48 1027.25 1027.79 1028.25 1028.70 1029.03 1029.24 1029.39 1029.44 1029.52 1029.55 1029.57 1029.51 1029.23 1028.92 1028.34 1028.09 1027.73 1026.89 1026.60 1026.15 1025.43 1025.03 1024.61
1007.43 1008.14 1008.81 1009.85 1010.76 1011.87 1012.77 1013.88 1014.98 1016.15 1017.45 1018.64 1019.82 1020.93 1021.91 1022.86 1023.86 1024.49 1025.14 1025.79 1026.33 1026.64 1027.42 1027.93 1028.32 1028.69 1028.89 1028.83 1028.90 1029.01 1029.10 1028.92 1028.89 1028.45 1028.14 1027.91 1027.52 1026.99 1026.55 1025.97 1025.46 1024.98 1024.52
1006.83 1007.68 1008.44 1009.41 1010.35 1011.36 1012.39 1013.35 1014.29 1015.30 1016.60 1018.10 1019.32 1020.32 1021.42 1022.49 1023.36 1024.32 1025.26 1025.67 1025.80 1026.23 1026.56 1026.93 1027.35 1027.89 1027.96 1028.18 1028.28 1028.36 1028.42 1028.39 1028.29 1028.27 1028.11 1027.79 1027.48 1027.15 1026.65 1026.11 1025.50 1024.97 1024.48
Thickness
5600 5599 5603 5603 5605 5606 5612 5615 5618 5615 5610 5609 5610 5609 5608 5609 5612 5615 5616 5617 5616 5616 5616 5616 5616 5615 5615 5612 5612 5609 5609 5607 5605 5606 5600 5599 5596 5591 5585 5580 5579 5577 5575
5595 5593 5596 5600 5601 5601 5604 5610 5610 5606 5603 5602 5599 5599 5599 5598 5602 5604 5605 5606 5605 5605 5605 5604 5601 5602 5601 5600 5598 5597 5594 5589 5589 5588 5582 5579 5583 5579 5575 5570 5568 5564 5563
5593 5589 5590 5593 5592 5592 5594 5597 5598 5597 5598 5595 5592 5592 5592 5591 5593 5595 5593 5592 5592 5593 5592 5591 5587 5587 5586 5583 5581 5582 5582 5575 5574 5573 5572 5566 5556 5557 5562 5560 5556 5553 5552
5590 5588 5586 5582 5584 5585 5586 5588 5590 5587 5588 5586 5585 5586 5586 5584 5580 5581 5580 5579 5580 5584 5579 5578 5577 5573 5572 5571 5567 5567 5569 5566 5561 5560 5558 5553 5549 5542 5546 5552 5548 5545 5544
5590 5586 5581 5580 5578 5577 5576 5575 5578 5578 5579 5577 5578 5577 5576 5574 5569 5568 5570 5568 5570 5570 5568 5568 5565 5565 5564 5559 5556 5556 5555 5552 5549 5547 5544 5543 5540 5536 5536 5537 5542 5541 5538
5579 5576 5575 5573 5567 5565 5566 5567 5569 5569 5568 5567 5566 5567 5563 5562 5560 5557 5557 5558 5557 5558 5558 5556 5557 5558 5555 5551 5548 5545 5543 5542 5541 5538 5535 5534 5530 5528 5526 5525 5527 5526 5532
5574 5569 5564 5561 5559 5557 5557 5558 5564 5560 5560 5557 5556 5556 5555 5556 5552 5549 5552 5551 5549 5547 5547 5547 5547 5546 5544 5542 5540 5537 5533 5532 5533 5529 5526 5523 5521 5519 5516 5512 5510 5512 5519
5577 5571 5566 5561 5557 5554 5554 5555 5556 5555 5554 5554 5550 5547 5545 5546 5546 5547 5547 5544 5541 5539 5537 5540 5538 5534 5533 5531 5529 5530 5529 5527 5524 5521 5517 5514 5512 5509 5504 5499 5496 5504 5504
5577 5569 5562 5557 5553 5552 5551 5550 5548 5547 5549 5546 5542 5538 5538 5542 5541 5541 5540 5537 5536 5532 5531 5530 5528 5526 5524 5522 5523 5524 5521 5520 5517 5512 5508 5506 5503 5499 5494 5488 5483 5480 5484
5577 5569 5564 5558 5552 5549 5547 5544 5542 5542 5542 5539 5535 5534 5536 5538 5536 5533 5531 5531 5529 5526 5524 5522 5521 5518 5516 5516 5520 5516 5513 5512 5508 5503 5501 5498 5494 5489 5484 5479 5473 5468 5464
5580 5574 5564 5556 5550 5546 5542 5538 5535 5535 5533 5533 5531 5533 5534 5532 5529 5527 5525 5523 5523 5522 5518 5516 5514 5511 5511 5513 5512 5509 5506 5503 5498 5495 5492 5489 5485 5480 5476 5471 5466 5460 5455
5575 5569 5561 5553 5547 5542 5537 5534 5533 5533 5531 5531 5531 5530 5527 5524 5523 5521 5519 5518 5518 5517 5513 5511 5509 5509 5508 5507 5506 5501 5497 5494 5490 5487 5485 5481 5477 5473 5468 5463 5458 5452 5446
5573 5565 5558 5552 5547 5541 5536 5534 5532 5531 5529 5528 5528 5525 5521 5518 5518 5517 5514 5514 5514 5511 5508 5508 5507 5505 5505 5502 5498 5494 5490 5486 5482 5480 5477 5474 5470 5465 5460 5454 5449 5442 5437
5575 5567 5559 5554 5549 5543 5538 5534 5531 5529 5528 5527 5525 5521 5517 5516 5513 5511 5512 5512 5509 5506 5505 5505 5505 5503 5499 5495 5491 5487 5482 5478 5477 5474 5470 5465 5460 5455 5450 5445 5438 5433 5426
5568 5563 5559 5554 5548 5542 5537 5534 5532 5529 5528 5525 5521 5518 5515 5512 5510 5509 5509 5507 5505 5503 5503 5503 5501 5498 5494 5490 5486 5481 5476 5473 5470 5466 5462 5458 5453 5447 5440 5433 5427 5420 5414
5572 5566 5562 5557 5551 5546 5540 5536 5533 5529 5527 5523 5520 5516 5512 5510 5509 5507 5505 5503 5502 5502 5502 5500 5497 5492 5489 5485 5480 5475 5471 5468 5465 5462 5457 5452 5447 5441 5433 5424 5416 5408 5402
5577 5570 5566 5562 5556 5549 5544 5539 5535 5529 5525 5522 5518 5515 5512 5510 5507 5505 5502 5501 5500 5500 5498 5496 5492 5487 5483 5480 5475 5471 5467 5463 5460 5457 5452 5446 5441 5434 5426 5420 5411 5401 5389
5581 5575 5570 5564 5558 5552 5546 5543 5537 5530 5526 5521 5518 5515 5512 5509 5505 5503 5501 5500 5498 5496 5494 5491 5487 5484 5479 5475 5471 5466 5461 5458 5454 5449 5444 5438 5432 5425 5419 5413 5405 5394 5384
5592 5585 5579 5570 5560 5554 5549 5543 5536 5531 5526 5522 5519 5516 5513 5509 5506 5502 5500 5498 5496 5492 5490 5487 5483 5479 5474 5471 5467 5462 5457 5452 5447 5442 5436 5431 5424 5417 5412 5406 5398 5389 5380
5589 5582 5575 5569 5562 5557 5551 5544 5538 5532 5529 5526 5523 5519 5515 5511 5507 5504 5499 5496 5493 5491 5486 5482 5479 5475 5470 5466 5463 5458 5452 5447 5442 5437 5430 5424 5417 5411 5405 5399 5392 5384 5375
5590 5582 5575 5571 5566 5558 5552 5547 5541 5537 5534 5529 5524 5519 5516 5513 5509 5502 5497 5494 5490 5486 5481 5477 5473 5469 5465 5462 5458 5453 5446 5441 5435 5429 5425 5418 5412 5405 5398 5391 5382 5373 5367
5588 5584 5575 5570 5564 5559 5555 5548 5545 5541 5535 5529 5524 5519 5515 5512 5506 5500 5495 5490 5485 5480 5475 5471 5466 5463 5460 5456 5451 5446 5440 5434 5427 5421 5416 5410 5404 5398 5390 5383 5376 5368 5358
5589 5583 5578 5568 5561 5558 5557 5553 5549 5541 5534 5527 5522 5517 5512 5508 5504 5497 5490 5484 5480 5475 5470 5466 5460 5457 5454 5449 5445 5439 5433 5427 5420 5413 5409 5404 5397 5390 5383 5377 5370 5361 5352
5585 5581 5573 5566 5560 5558 5557 5557 5548 5542 5535 5528 5521 5514 5509 5503 5499 5494 5489 5483 5476 5470 5466 5461 5456 5451 5447 5443 5438 5432 5426 5420 5414 5409 5404 5398 5391 5385 5377 5370 5364 5355 5345
5579 5577 5576 5570 5565 5559 5556 5551 5545 5539 5533 5527 5519 5512 5507 5501 5494 5490 5486 5481 5477 5473 5465 5460 5455 5447 5441 5439 5434 5427 5421 5415 5410 5406 5400 5393 5386 5379 5372 5365 5357 5350 5340
5576 5573 5570 5566 5560 5555 5551 5547 5542 5538 5532 5523 5515 5509 5502 5496 5491 5485 5476 5475 5473 5469 5465 5461 5455 5448 5443 5436 5430 5423 5417 5411 5406 5399 5393 5387 5380 5372 5366 5359 5352 5345 5336